EN

Hourly Weather Almalybak

Today, 24 January, Sunday

Time Temperature Precipitation Wind Pressure Humidity
00:00 -7°C° 0.1 mm 2 mps 703 mmHg 84%
01:00 -7°C° 0.1 mm 2 mps 703 mmHg 84%
02:00 -8°C° 0.1 mm 3 mps 704 mmHg 84%
03:00 -6°C° 0 mm 1 mps 703 mmHg 77%
04:00 -7°C° 0 mm 2 mps 704 mmHg 76%
05:00 -8°C° 0 mm 2 mps 704 mmHg 76%
06:00 -8°C° 0 mm 2 mps 704 mmHg 75%
07:00 -8°C° 0 mm 2 mps 705 mmHg 74%
08:00 -8°C° 0 mm 2 mps 705 mmHg 73%
09:00 -6°C° 0 mm 2 mps 705 mmHg 74%
10:00 -5°C° 0 mm 2 mps 705 mmHg 75%
11:00 -2°C° 0 mm 1 mps 705 mmHg 77%
12:00 -2°C° 0 mm 1 mps 704 mmHg 78%
13:00 -2°C° 0 mm 1 mps 704 mmHg 79%
14:00 -1°C° 0 mm 1 mps 703 mmHg 79%
15:00 -3°C° 0 mm 1 mps 703 mmHg 79%
16:00 -6°C° 0 mm 2 mps 703 mmHg 78%
17:00 -7°C° 0 mm 2 mps 703 mmHg 78%
18:00 -8°C° 0 mm 2 mps 703 mmHg 75%
19:00 -8°C° 0 mm 2 mps 703 mmHg 72%
20:00 -8°C° 0 mm 2 mps 703 mmHg 70%
21:00 -8°C° 0 mm 2 mps 703 mmHg 71%
22:00 -7°C° 0 mm 1 mps 703 mmHg 73%
23:00 -7°C° 0 mm 1 mps 703 mmHg 75%

Tomorrow, 25 January, Monday

Time Temperature Precipitation Wind Pressure Humidity
00:00 -7°C° 0 mm 1 mps 703 mmHg 77%
01:00 -6°C° 0 mm 1 mps 702 mmHg 79%
02:00 -6°C° 0 mm 1 mps 702 mmHg 80%
03:00 -6°C° 0 mm 1 mps 702 mmHg 82%
04:00 -6°C° 0 mm 1 mps 702 mmHg 83%
05:00 -7°C° 0 mm 1 mps 701 mmHg 84%
06:00 -6°C° 0 mm 1 mps 701 mmHg 84%
07:00 -6°C° 0 mm 1 mps 701 mmHg 84%
08:00 -6°C° 0 mm 1 mps 701 mmHg 84%
09:00 -4°C° 0 mm 1 mps 701 mmHg 84%
10:00 -4°C° 0 mm 1 mps 701 mmHg 83%
11:00 -3°C° 0 mm 1 mps 700 mmHg 82%
12:00 -2°C° 0 mm 1 mps 700 mmHg 83%
13:00 -2°C° 0 mm 1 mps 699 mmHg 84%
14:00 -2°C° 0 mm 1 mps 699 mmHg 85%
15:00 -3°C° 0 mm 1 mps 699 mmHg 86%
16:00 -4°C° 0 mm 1 mps 699 mmHg 87%
17:00 -7°C° 0 mm 1 mps 699 mmHg 88%
18:00 -7°C° 0 mm 1 mps 699 mmHg 85%
19:00 -7°C° 0 mm 1 mps 699 mmHg 83%
20:00 -7°C° 0 mm 0 mps 699 mmHg 81%
21:00 -7°C° 0 mm 0 mps 699 mmHg 80%
22:00 -8°C° 0 mm 0 mps 699 mmHg 79%
23:00 -8°C° 0 mm 1 mps 700 mmHg 78%

Day after tomorrow, 26 January, Tuesday

Time Temperature Precipitation Wind Pressure Humidity
00:00 -8°C° 0 mm 1 mps 699 mmHg 77%
01:00 -8°C° 0 mm 1 mps 699 mmHg 76%
02:00 -8°C° 0 mm 1 mps 699 mmHg 76%
03:00 -8°C° 0 mm 1 mps 699 mmHg 75%
04:00 -8°C° 0 mm 1 mps 699 mmHg 75%
05:00 -8°C° 0 mm 1 mps 699 mmHg 74%
06:00 -8°C° 0 mm 1 mps 699 mmHg 74%
07:00 -8°C° 0 mm 1 mps 700 mmHg 74%
08:00 -8°C° 0 mm 1 mps 700 mmHg 73%
09:00 -7°C° 0 mm 1 mps 700 mmHg 74%
10:00 -4°C° 0 mm 1 mps 700 mmHg 75%
11:00 -3°C° 0 mm 1 mps 700 mmHg 76%
12:00 -2°C° 0 mm 1 mps 700 mmHg 78%
13:00 -2°C° 0 mm 1 mps 699 mmHg 79%
14:00 -2°C° 0 mm 1 mps 699 mmHg 81%
15:00 -3°C° 0 mm 1 mps 699 mmHg 82%
16:00 -6°C° 0 mm 1 mps 699 mmHg 83%
17:00 -7°C° 0 mm 0 mps 699 mmHg 84%
18:00 -7°C° 0 mm 1 mps 699 mmHg 81%
19:00 -8°C° 0 mm 1 mps 699 mmHg 78%
20:00 -8°C° 0 mm 1 mps 700 mmHg 75%
21:00 -8°C° 0 mm 1 mps 700 mmHg 74%
22:00 -8°C° 0 mm 1 mps 700 mmHg 73%
23:00 -8°C° 0 mm 1 mps 700 mmHg 72%

27 January, Wednesday

Time Temperature Precipitation Wind Pressure Humidity
00:00 -8°C° 0 mm 1 mps 700 mmHg 71%
01:00 -8°C° 0 mm 1 mps 700 mmHg 71%
02:00 -8°C° 0 mm 1 mps 700 mmHg 71%
03:00 -8°C° 0 mm 1 mps 700 mmHg 70%
04:00 -9°C° 0 mm 1 mps 700 mmHg 70%
05:00 -9°C° 0 mm 1 mps 700 mmHg 69%
06:00 -9°C° 0 mm 1 mps 700 mmHg 69%
07:00 -8°C° 0 mm 1 mps 700 mmHg 69%
08:00 -8°C° 0 mm 1 mps 700 mmHg 69%
09:00 -7°C° 0 mm 1 mps 700 mmHg 71%
10:00 -6°C° 0 mm 1 mps 700 mmHg 72%
11:00 -3°C° 0 mm 1 mps 700 mmHg 74%
12:00 -3°C° 0 mm 1 mps 699 mmHg 75%
13:00 -2°C° 0 mm 1 mps 699 mmHg 77%
14:00 -2°C° 0 mm 1 mps 699 mmHg 79%
15:00 -3°C° 0 mm 1 mps 699 mmHg 80%
16:00 -6°C° 0 mm 1 mps 699 mmHg 81%
17:00 -7°C° 0 mm 1 mps 699 mmHg 82%
18:00 -7°C° 0 mm 1 mps 699 mmHg 79%
19:00 -7°C° 0 mm 1 mps 700 mmHg 77%
20:00 -8°C° 0 mm 1 mps 700 mmHg 74%
21:00 -8°C° 0 mm 1 mps 700 mmHg 72%
22:00 -8°C° 0 mm 1 mps 700 mmHg 71%
23:00 -8°C° 0 mm 1 mps 700 mmHg 69%

28 January, Thursday

Time Temperature Precipitation Wind Pressure Humidity
00:00 -8°C° 0 mm 1 mps 700 mmHg 68%
01:00 -8°C° 0 mm 1 mps 700 mmHg 67%
02:00 -8°C° 0 mm 1 mps 700 mmHg 66%
03:00 -8°C° 0 mm 1 mps 700 mmHg 66%
04:00 -8°C° 0 mm 1 mps 700 mmHg 66%
05:00 -8°C° 0 mm 1 mps 700 mmHg 66%
06:00 -8°C° 0 mm 1 mps 700 mmHg 67%
07:00 -8°C° 0 mm 1 mps 700 mmHg 67%
08:00 -8°C° 0 mm 1 mps 700 mmHg 67%
09:00 -6°C° 0 mm 1 mps 700 mmHg 69%
10:00 -4°C° 0 mm 1 mps 700 mmHg 71%
11:00 -3°C° 0 mm 1 mps 700 mmHg 73%
12:00 -2°C° 0 mm 1 mps 699 mmHg 74%
13:00 -2°C° 0 mm 1 mps 699 mmHg 75%
14:00 -2°C° 0 mm 1 mps 699 mmHg 77%
15:00 -3°C° 0 mm 1 mps 699 mmHg 78%
16:00 -4°C° 0 mm 1 mps 699 mmHg 78%
17:00 -7°C° 0 mm 1 mps 699 mmHg 79%
18:00 -7°C° 0 mm 1 mps 699 mmHg 76%
19:00 -7°C° 0 mm 1 mps 699 mmHg 72%
20:00 -7°C° 0 mm 1 mps 699 mmHg 68%
21:00 -7°C° 0 mm 1 mps 699 mmHg 67%
22:00 -7°C° 0 mm 1 mps 699 mmHg 65%
23:00 -7°C° 0 mm 1 mps 699 mmHg 64%

29 January, Friday

Time Temperature Precipitation Wind Pressure Humidity
Show more